Station 41010 (LLNR 845) - CANAVERAL EAST - 120NM East of Cape Canaveral Image indicating link to RSS feed of recent meteorological observations for station 41010


Conditions at 41010 as of
(7:10 am EDT)
1110 GMT on 07/20/2024:
     

Click on the graph icon in the table below to see a time series plot of the last five days of that observation.

5-day plot - Wind Direction Wind Direction (WDIR):SSE ( 160 deg true )
5-day plot - Wind Speed Wind Speed (WSPD): 13.6 kts
5-day plot - Wind Gust Wind Gust (GST): 15.5 kts
5-day plot - Atmospheric Pressure Atmospheric Pressure (PRES):30.11 in
5-day plot - Air Temperature Air Temperature (ATMP): 84.6 °F
5-day plot - Water Temperature Water Temperature (WTMP): 85.5 °F
5-day plot - Dew Point Dew Point (DEWP): 78.8 °F
5-day plot - Heat Index Heat Index (HEAT): 96.8 °F
5-day plot - Wind Speed at 10 Meters Wind Speed at 10 meters (WSPD10M): 15.5 kts
5-day plot - Wind Speed at 20 Meters Wind Speed at 20 meters (WSPD20M): 15.5 kts
5-day plot -  Wind Speed, Wind Gust and Atmospheric Pressure Combined plot of Wind Speed, Gust, and Air Pressure
Supplemental Measurements
Lowest 1-minute Pressure
Time (EDT)Pressure
7:02 am30.11 in
Highest 1-minute Wind Speed
Time (EDT)5-day plot - 1-Minute Wind Speed WSPD 5-day plot - 1-Minute Wind Direction WDIR
7:04 am 15.5 ktsSSE ( 150 deg true )
Previous observations
TIME
(EDT)
5-day plot - Wind Direction
WDIR
 
5-day plot - Wind Speed
WSPD
kts
5-day plot - Wind Gust
GST
kts
5-day plot - Wave Height
WVHT
ft
5-day plot - Dominant Wave Period
DPD
sec
5-day plot - Average Wave Period
APD
sec
5-day plot - Mean Wave Direction
MWD
 
5-day plot - Atmospheric Pressure
PRES
in
5-day plot - Pressure Tendency
PTDY
in
5-day plot - Air Temperature
ATMP
°F
5-day plot - Water Temperature
WTMP
°F
5-day plot - Dew Point
DEWP
°F
5-day plot - Salinity
SAL
psu
5-day plot - Visibility
VIS
nmi
5-day plot - Tide (above MLLW)
TIDE
ft
2024-07-20 07:00 amSSE 13.6 15.5----30.11+0.00 84.6 85.5 79.0---
2024-07-20 06:50 amSSE 11.7 15.5 5.6 96.2ESE30.11- 84.4 85.5 79.5---
2024-07-20 06:40 amSSE 11.7 13.6----30.10- 84.2 85.5 79.3---
2024-07-20 06:30 amSSE 11.7 13.6----30.11- 84.4 85.5 79.3---
2024-07-20 06:20 amSSE 11.7 15.5 5.2 96.1ESE30.11- 84.4 85.5 79.0---
2024-07-20 06:10 amSSE 13.6 15.5 5.2-6.1ESE30.10- 84.4 85.5 79.2---
2024-07-20 06:00 am S 11.7 15.5----30.11-0.02 84.6 85.5 79.3---
2024-07-20 05:50 am S 13.6 15.5 4.9 95.9ESE30.11- 84.6 85.5 79.3---
2024-07-20 05:40 amSSE 13.6 15.5----30.11- 84.4 85.5 79.2---
2024-07-20 05:30 amSSE 11.7 15.5----30.10- 84.4 85.5 79.3---
2024-07-20 05:20 amSSE 11.7 15.5 5.2 96.1ESE30.10- 84.4 85.5 79.2---
2024-07-20 05:10 am S 13.6 15.5 5.2-6.1ESE30.10- 84.4 85.5 78.4---
2024-07-20 05:00 am S 11.7 15.5----30.10-0.04 84.4 85.5 78.6---
2024-07-20 04:50 am S 11.7 13.6 4.9 96.1ESE30.11- 84.4 85.5 78.6---
2024-07-20 04:40 am S 11.7 13.6----30.11- 84.4 85.5 78.3---
2024-07-20 04:30 amSSE 11.7 13.6----30.11- 84.4 85.5 78.8---
2024-07-20 04:20 amSSE 11.7 13.6 5.2 96.3ESE30.11- 84.4 85.5 78.6---
2024-07-20 04:10 amSSE 9.7 13.6 5.2-6.3ESE30.10- 84.4- 79.0---
2024-07-20 04:00 amSSE 11.7 13.6----30.11-0.04 84.4 85.5 79.0---
2024-07-20 03:50 am S 7.8 11.7 4.9 96.4ESE30.11- 83.8 85.5 78.1---
2024-07-20 03:40 am S 5.8 7.8----30.12- 82.9 85.5 77.2---
2024-07-20 03:30 am SW 5.8 7.8----30.12- 82.4 85.5 77.2---
2024-07-20 03:20 am SW 7.8 13.6 4.9 96.2ESE30.12- 82.6 85.5 77.4---
2024-07-20 03:10 amSSW 15.5 23.3 4.9-6.2ESE30.13- 83.1 85.5 76.1---
2024-07-20 03:00 am S 9.7 15.5----30.12-0.02 84.6 85.5 78.8---
2024-07-20 02:50 am S 9.7 11.7 4.6 95.6ESE30.12- 84.6 85.5 78.4---
2024-07-20 02:40 amSSE 9.7 11.7----30.12- 84.6 85.5 78.4---
2024-07-20 02:30 am S 9.7 13.6----30.13- 84.6 85.6 78.4---
2024-07-20 02:20 am S 9.7 11.7 4.6 95.9ESE30.13- 84.6 85.6 78.4---
2024-07-20 02:10 am S 11.7 13.6 4.6-5.9ESE30.13- 84.7 85.6 78.4---
2024-07-20 02:00 amSSE 11.7 13.6----30.14+0.00 84.6 85.6 78.3---
2024-07-20 01:50 am S 9.7 13.6 3.9 105.5ESE30.14- 84.6 85.6 78.8---
2024-07-20 01:40 amSSE 9.7 13.6----30.14- 84.7 85.6 78.8---
2024-07-20 01:30 amSSE 9.7 13.6----30.14- 84.6 85.6 78.8---
2024-07-20 01:20 amSSE 9.7 13.6 4.3 105.9ESE30.14- 84.7 85.6 78.8---
2024-07-20 01:10 amSSE 11.7 13.6 4.3-5.9ESE30.14- 84.7 85.6 78.4---
2024-07-20 01:00 amSSE 9.7 13.6----30.15+0.02 84.6 85.6 79.2---
2024-07-20 12:50 amSSE 11.7 13.6 4.3 105.7ESE30.14- 84.6 85.6 79.2---
2024-07-20 12:40 amSSE 11.7 13.6----30.15- 84.7 85.6 79.0---
2024-07-20 12:30 amSSE 11.7 13.6----30.15- 84.7 85.6 79.0---
2024-07-20 12:20 amSSE 11.7 13.6 3.9 85.4 SE30.15- 84.7 85.6 78.6---
2024-07-20 12:10 amSSE 11.7 13.6 3.9-5.4 SE30.14- 84.7 85.6 78.4---
2024-07-20 12:00 amSSE 11.7 13.6----30.14+0.03 84.7 85.6 78.4---
2024-07-19 11:50 pmSSE 11.7 15.5 4.3 85.6ESE30.15- 84.7 85.6 78.1---
2024-07-19 11:40 pmSSE 11.7 13.6----30.15- 84.7 85.6 78.3---
2024-07-19 11:30 pmSSE 11.7 13.6----30.14- 84.7 85.6 78.3---
2024-07-19 11:20 pmSSE 11.7 13.6 3.9 85.8ESE30.14- 84.7 85.6 78.6---
2024-07-19 11:10 pmSSE 11.7 13.6 3.9-5.8ESE30.14- 84.9 85.6 78.8---
2024-07-19 11:00 pmSSE 9.7 13.6----30.14+0.05 84.9 85.6 79.0---
2024-07-19 10:50 pmSSE 9.7 13.6 3.9 85.6ESE30.14- 85.1 85.6 78.3---
2024-07-19 10:40 pmSSE 11.7 13.6----30.14- 85.1 85.6 77.9---
2024-07-19 10:30 pmSSE 11.7 13.6----30.14- 85.1 85.6 78.1---
2024-07-19 10:20 pmSSE 11.7 13.6 3.6 95.5ESE30.13- 85.1 85.8 78.1---
2024-07-19 10:10 pmSSE 11.7 13.6 3.6-5.5ESE30.13- 84.9 85.8 78.4---
2024-07-19 10:00 pmSSE 11.7 13.6----30.12+0.04 85.1 85.8 77.9---
2024-07-19 09:50 pmSSE 11.7 15.5 3.9 85.8ESE30.13- 85.1 85.8 78.3---
2024-07-19 09:40 pmSSE 11.7 13.6 3.9-5.8ESE30.12- 85.1 85.8 78.4---
2024-07-19 09:30 pmSSE 11.7 13.6----30.12- 85.1 86.0 78.6---
2024-07-19 09:20 pmSSE 11.7 13.6 3.3 95.5ESE30.12- 84.9 85.8 78.4---
2024-07-19 09:10 pmSSE 11.7 13.6 3.3-5.5ESE30.12- 85.1 86.0 79.0---
2024-07-19 09:00 pmSSE 9.7 11.7----30.11+0.03 85.1 86.0 78.4---
2024-07-19 08:50 pmSSE 9.7 11.7 3.6 95.7ESE30.11- 84.9 85.8 78.4---
2024-07-19 08:40 pmSSE 9.7 11.7 3.6-5.7ESE30.11- 84.9 85.8 77.9---
2024-07-19 08:30 pm SE 9.7 11.7----30.10- 84.9 85.8 78.1---
2024-07-19 08:20 pmSSE 11.7 13.6 3.6 65.5ESE30.10- 84.7 85.8 78.4---
2024-07-19 08:10 pmSSE 11.7 13.6 3.6-5.5ESE30.09- 84.7 86.0 78.4---
2024-07-19 08:00 pmSSE 11.7 13.6----30.09+0.00 84.9 86.0 78.6---
2024-07-19 07:50 pmSSE 11.7 13.6 3.6 85.4ESE30.09- 84.9 85.8 78.3---
2024-07-19 07:40 pmSSE 11.7 13.6----30.09- 84.9 86.0 78.4---
2024-07-19 07:10 pmSSE 11.7 13.6 3.6-5.5ESE30.09- 84.9 86.0 78.4---
2024-07-19 07:00 pmSSE 9.7 13.6----30.08-0.02 84.9 86.2 78.3---
2024-07-19 06:50 pmSSE 9.7 11.7 3.6 85.8ESE30.08- 84.9 86.2 78.3---
2024-07-19 06:40 pmSSE 9.7 13.6----30.08- 84.9 86.2 78.3---
2024-07-19 06:30 pmSSE 9.7 13.6----30.08- 84.9 86.0 78.3---
2024-07-19 06:20 pmSSE 9.7 11.7 3.6 85.8ESE30.08- 85.1 86.0 78.1---
2024-07-19 06:10 pmSSE 9.7 11.7 3.6-5.8ESE30.09- 85.1 86.0 77.7---
2024-07-19 06:00 pmSSE 7.8 9.7----30.08-0.03 85.1 86.2 77.5---
2024-07-19 05:50 pmSSE 9.7 9.7 3.3 85.6ESE30.08- 85.1 86.2 77.7---
2024-07-19 05:40 pmSSE 7.8 9.7----30.08- 84.9 86.2 77.4---
2024-07-19 05:30 pm S 7.8 9.7----30.08- 84.9 86.2 77.2---
2024-07-19 05:20 pm S 7.8 9.7 3.6 85.5ESE30.09- 85.1 86.2 77.5---
2024-07-19 05:10 pmSSE 7.8 9.7 3.6-5.5ESE30.09- 85.1 86.4 77.4---
2024-07-19 05:00 pm S 7.8 9.7----30.09-0.04 84.9 86.2 77.5---
2024-07-19 04:50 pmSSE 7.8 9.7 3.6 85.6ESE30.10- 84.9 86.2 77.9---
2024-07-19 04:40 pmSSE 7.8 9.7----30.10- 84.9 86.4 78.1---
2024-07-19 04:30 pmSSE 7.8 9.7----30.10- 84.9 86.2 77.9---
2024-07-19 04:20 pmSSE 9.7 11.7 3.6 85.7ESE30.10- 84.9 86.4 77.9---
2024-07-19 04:10 pmSSE 7.8 9.7 3.6-5.7ESE30.11- 84.9 86.4 77.9---
2024-07-19 04:00 pmSSE 7.8 9.7----30.10-0.04 85.1 86.4 77.4---
2024-07-19 03:50 pmSSE 5.8 7.8 3.6 85.6ESE30.11- 84.9 86.2 76.8---
2024-07-19 03:40 pmSSE 7.8 7.8 3.6-5.6ESE30.11- 84.9 86.2 77.2---
2024-07-19 03:30 pmSSE 7.8 9.7----30.11- 84.7 86.4 77.7---
2024-07-19 03:20 pmSSE 7.8 7.8 3.6 95.5ESE30.11- 84.7 86.2 77.7---
2024-07-19 03:10 pm S 7.8 9.7 3.6-5.5ESE30.11- 84.9 86.4 77.7---
2024-07-19 03:00 pm S 7.8 9.7----30.11-0.01 84.9 86.4 77.7---
2024-07-19 02:50 pm S 7.8 9.7 3.6 95.5ESE30.12- 84.9 86.2 77.5---
2024-07-19 02:40 pm S 5.8 9.7----30.12- 84.7 86.2 77.7---
2024-07-19 02:30 pm S 7.8 9.7----30.13- 84.7 86.2 78.1---
2024-07-19 02:20 pm S 7.8 7.8 3.6 75.6ESE30.13- 84.7 86.2 77.9---
2024-07-19 02:10 pm S 7.8 9.7 3.6-5.6ESE30.13- 84.7 86.0 78.1---
2024-07-19 02:00 pm S 5.8 7.8----30.14+0.00 84.7 86.0 78.1---
2024-07-19 01:50 pm S 7.8 7.8 3.6 85.6ESE30.13- 84.7 86.0 78.3---
2024-07-19 01:40 pm S 7.8 9.7----30.13- 84.7 86.0 78.6---
2024-07-19 01:30 pm S 7.8 9.7----30.14- 84.7 86.0 78.4---
2024-07-19 01:20 pm S 7.8 9.7 3.3 95.4ESE30.14- 84.7 85.8 78.4---
2024-07-19 01:10 pm S 7.8 9.7 3.3-5.4ESE30.14- 84.7 85.8 78.6---
2024-07-19 01:00 pm S 7.8 9.7----30.14+0.02 84.6 85.6 78.4---
2024-07-19 12:50 pm S 9.7 11.7 3.6 95.5ESE30.14- 84.6 85.8 78.6---
2024-07-19 12:40 pm S 7.8 11.7 3.6-5.5ESE30.14- 84.6 85.6 78.4---
2024-07-19 12:30 pm S 7.8 9.7----30.14- 84.6 85.6 78.6---
2024-07-19 12:20 pm S 7.8 11.7 3.6 85.6ESE30.14- 84.6 85.8 78.4---
2024-07-19 12:10 pm S 7.8 9.7 3.6-5.6ESE30.14- 84.6 85.6 78.1---
2024-07-19 12:00 pm S 7.8 7.8----30.13+0.01 84.6 85.6 78.1---
2024-07-19 11:50 am S 7.8 9.7 3.6 85.3ESE30.13- 84.7 85.6 78.1---
2024-07-19 11:40 am S 7.8 9.7----30.13- 84.6 85.6 77.5---
2024-07-19 11:30 am S 7.8 9.7----30.13- 84.6 85.6 77.7---
2024-07-19 11:20 am S 7.8 9.7 3.9 95.7ESE30.13- 84.4 85.5 78.1---
2024-07-19 11:10 am S 7.8 9.7 3.9-5.7ESE30.13- 84.4 85.5 78.3---
2024-07-19 11:00 amSSW 7.8 9.7----30.13+0.03 84.4 85.5 78.3---
2024-07-19 10:50 am S 7.8 9.7 3.6 85.2ESE30.13- 84.4 85.5 78.3---
2024-07-19 10:40 amSSW 9.7 11.7 3.6-5.2ESE30.13- 84.4 85.5 78.3---
2024-07-19 10:30 amSSW 9.7 13.6----30.12- 84.4 85.5 78.1---
2024-07-19 10:20 am S 9.7 11.7 3.6 85.2ESE30.12- 84.4 85.3 78.3---
2024-07-19 10:10 amSSW 9.7 11.7 3.6-5.2ESE30.12- 84.4 85.3 78.1---
2024-07-19 10:00 am S 11.7 13.6----30.12+0.04 84.4 85.3 77.7---
2024-07-19 09:50 am S 11.7 13.6 3.9 85.3ESE30.12- 84.4 85.3 77.9---
2024-07-19 09:40 am S 11.7 15.5----30.12- 84.4 85.3 77.5---
2024-07-19 09:30 am S 11.7 13.6----30.12- 84.4 85.3 77.5---
2024-07-19 09:20 am S 11.7 15.5 3.9 85.4ESE30.11- 84.4 85.3 77.9---
2024-07-19 09:10 am S 11.7 13.6 3.9-5.4ESE30.11- 84.4 85.3 77.5---
2024-07-19 09:00 am S 9.7 11.7----30.11+0.05 84.6 85.3 76.8---
2024-07-19 08:50 am S 9.7 13.6 3.6 95.3ESE30.11- 84.4 85.3 77.4---
2024-07-19 08:40 am S 9.7 11.7----30.11- 84.4 85.3 77.9---
2024-07-19 08:30 am S 9.7 11.7----30.11- 84.4 85.3 78.3---
2024-07-19 08:20 am S 9.7 11.7 3.9 85.5ESE30.11- 84.2 85.3 77.9---
2024-07-19 08:10 am S 9.7 11.7 3.9-5.5ESE30.10- 84.2 85.3 78.3---
2024-07-19 08:00 amSSE 9.7 13.6----30.10+0.04 83.8 85.3 77.5---
2024-07-19 07:50 am S 9.7 13.6 4.3 85.4ESE30.09- 84.0 85.3 78.1---
2024-07-19 07:40 am S 9.7 11.7----30.09- 84.4 85.3 77.7---
2024-07-19 07:30 am S 9.7 13.6----30.09- 84.4 85.3 77.9---
2024-07-19 07:20 am S 11.7 13.6 3.9 95.4ESE30.09- 84.2 85.3 77.7---
2024-07-19 07:10 am S 11.7 13.6 3.9-5.4ESE30.09- 84.2 85.3 77.7---
2024-07-19 07:00 am S 11.7 13.6----30.08+0.02 84.2 85.3 77.5---
2024-07-19 06:50 am S 11.7 13.6 4.3 85.6ESE30.08- 84.2 85.3 77.7---

Detailed Wave Summary
for 41010 as of (6:40 am EDT)
1040 GMT on 07/20/2024:

These wave data are displayed in rounded times.

     

Click on the graph icon in the table below to see a time series plot of the last five days of that observation.

5-day plot - Significant Wave Height Significant Wave Height (WVHT): 5.6 ft
5-day plot - Swell Height Swell Height (SwH): 4.9 ft
5-day plot - Swell Period Swell Period (SwP): 9.1 sec
5-day plot - Swell Direction Swell Direction (SwD):ESE
5-day plot - Wind Wave Height Wind Wave Height (WWH): 3.0 ft
5-day plot - Wind Wave Period Wind Wave Period (WWP): 5.9 sec
5-day plot - Wind Wave Direction Wind Wave Direction (WWD): SE
5-day plot - Wave Steepness Wave Steepness (STEEPNESS): AVERAGE
5-day plot - Average Wave Period Average Wave Period (APD): 6.2 sec
Previous observations
TIME
(EDT)
5-day plot - Wave Height
WVHT
ft
5-day plot - Swell Height
SwH
ft
5-day plot - Swell Period
SwP
sec
5-day plot - Swell Direction
SwD
 
5-day plot - Wind Wave Height
WWH
ft
5-day plot - Wind Wave Period
WWP
sec
5-day plot - Wind Wave Direction
WWD
 
5-day plot - Wave Steepness
STEEPNESS
 
5-day plot - Average Wave Period
APD
sec
2024-07-20 06:10 am 5.2 4.3 9.1ESE 3.0 4.8 SE AVERAGE 6.1
2024-07-20 05:40 am 4.9 3.9 9.1ESE 3.0 5.0 SSE AVERAGE 5.9
2024-07-20 05:10 am 5.2 4.3 9.1ESE 3.0 5.0 SE AVERAGE 6.1
2024-07-20 04:40 am 4.9 4.3 9.1ESE 2.6 5.0 SSE AVERAGE 6.1
2024-07-20 04:10 am 5.2 4.9 9.1ESE 2.3 4.8 SE AVERAGE 6.3
2024-07-20 03:40 am 4.9 4.9 9.1ESE 1.3 3.8 S AVERAGE 6.4
2024-07-20 03:10 am 4.9 3.9 9.1ESE 3.3 6.7 ESE AVERAGE 6.2
2024-07-20 02:40 am 4.6 3.9 9.1ESE 2.0 4.8 SE SWELL 5.6
2024-07-20 02:10 am 4.6 3.9 9.1ESE 2.3 4.3 SSE SWELL 5.9
2024-07-20 01:40 am 3.9 3.3 10.0ESE 2.3 4.3 S SWELL 5.5
2024-07-20 01:10 am 4.3 3.6 10.0ESE 2.3 5.3 SE SWELL 5.9
2024-07-20 12:40 am 4.3 3.6 10.0ESE 2.0 4.3 SSE SWELL 5.7
2024-07-20 12:10 am 3.9 3.0 8.3 SE 2.3 5.0 SE AVERAGE 5.4
2024-07-19 11:40 pm 4.3 3.6 7.7ESE 2.6 4.8 SSE AVERAGE 5.6
2024-07-19 11:10 pm 3.9 3.3 8.3ESE 2.3 5.9 SE AVERAGE 5.8
2024-07-19 10:40 pm 3.9 3.3 8.3ESE 2.3 5.0 SE AVERAGE 5.6
2024-07-19 10:10 pm 3.6 3.3 9.1ESE 2.0 5.3 SE SWELL 5.5
2024-07-19 09:40 pm 3.9 3.3 8.3ESE 2.0 5.3 SE AVERAGE 5.8
2024-07-19 09:10 pm 3.3 3.0 9.1ESE 1.6 5.0 SE SWELL 5.5
2024-07-19 08:40 pm 3.6 3.3 9.1ESE 1.6 4.8 SE SWELL 5.7
2024-07-19 08:10 pm 3.6 3.0 5.9ESE 2.0 5.3 ESE STEEP 5.5
2024-07-19 07:40 pm 3.6 3.0 8.3ESE 2.0 5.0 ESE SWELL 5.4
2024-07-19 07:10 pm 3.6 3.0 8.3ESE 2.0 5.3 ESE AVERAGE 5.5
2024-07-19 06:40 pm 3.6 3.3 7.7ESE 1.6 4.8 SE AVERAGE 5.8
2024-07-19 06:10 pm 3.6 3.3 7.7ESE 1.3 4.2 SSE AVERAGE 5.8
2024-07-19 05:40 pm 3.3 3.3 8.3ESE 1.3 3.8 SSE SWELL 5.6
2024-07-19 05:10 pm 3.6 3.3 7.7ESE 1.3 3.8 SSE AVERAGE 5.5
2024-07-19 04:40 pm 3.6 3.3 8.3ESE 1.0 4.0 SSE AVERAGE 5.6
2024-07-19 04:10 pm 3.6 3.6 8.3ESE 1.3 3.8 SSE AVERAGE 5.7
2024-07-19 03:40 pm 3.6 3.3 7.7ESE 1.3 4.0 SSE AVERAGE 5.6
2024-07-19 03:10 pm 3.6 3.3 9.1ESE 1.3 3.8 SSE SWELL 5.5
2024-07-19 02:40 pm 3.6 3.3 9.1ESE 1.3 3.7 SSE SWELL 5.5
2024-07-19 02:10 pm 3.6 3.3 7.1ESE 1.3 3.8 SSE AVERAGE 5.6
2024-07-19 01:40 pm 3.6 3.3 7.7ESE 1.3 3.6 S AVERAGE 5.6
2024-07-19 01:10 pm 3.3 3.3 9.1ESE 1.3 3.6 S SWELL 5.4
2024-07-19 12:40 pm 3.6 3.3 9.1ESE 1.3 4.2 S SWELL 5.5
2024-07-19 12:10 pm 3.6 3.6 7.7ESE 1.3 4.0 S AVERAGE 5.6
2024-07-19 11:40 am 3.6 3.3 8.3ESE 1.6 4.0 SSE AVERAGE 5.3
2024-07-19 11:10 am 3.9 3.6 9.1ESE 1.3 3.8 SSE SWELL 5.7
2024-07-19 10:40 am 3.6 3.3 8.3ESE 1.6 4.0 SSE AVERAGE 5.2
2024-07-19 10:10 am 3.6 3.0 8.3ESE 2.0 4.5 SSE AVERAGE 5.2
2024-07-19 09:40 am 3.9 3.0 8.3ESE 2.6 4.8 SE AVERAGE 5.3
2024-07-19 09:10 am 3.9 3.3 8.3ESE 2.6 5.6 SE AVERAGE 5.4
2024-07-19 08:40 am 3.6 3.0 9.1ESE 2.0 4.8 SSE SWELL 5.3
2024-07-19 08:10 am 3.9 3.6 8.3ESE 2.0 4.3 SSE AVERAGE 5.5
2024-07-19 07:40 am 4.3 3.6 8.3ESE 2.3 4.8 SSE AVERAGE 5.4
2024-07-19 07:10 am 3.9 3.3 9.1ESE 2.3 5.6 SE SWELL 5.4

Plot of wave energy versus frequency (and period)